Skagway, AK

4:12 PM AKDT on June 22, 2017 (GMT -0800)
Skagway

Weather History for PAGY - August, 2012

Change the Weather History Date:

Thursday, August 23, 2012

  Actual Average Record
Temperature  
Mean Temperature 55 °F -  
Max Temperature 59 °F 59 °F 80 °F (1965)
Min Temperature 51 °F 48 °F 40 °F (1987)
Degree Days  
Heating Degree Days 10    
Growing Degree Days 5 (Base 50)    
Moisture  
Dew Point 49 °F    
Average Humidity 82    
Maximum Humidity 94    
Minimum Humidity 69    
Precipitation  
Precipitation 0.00 in - - ()
Sea Level Pressure  
Sea Level Pressure 29.92 in    
Wind  
Wind Speed 7 mph (SSW)    
Max Wind Speed 18 mph    
Max Gust Speed 29 mph    
Visibility 10 miles    
Events Rain    
Averages and records for this station are not official NWS values.
T = Trace of Precipitation, MM = Missing Value Source: NWS Daily Summary

Daily Weather History Graph

Daily Weather History Graph

Search for Another Location

Airport or City:

Trip Planner

Search our weather history database for the weather conditions in past years. The results will help you decide how hot, cold, wet, or windy it might be!

Date:

Astronomy

Aug. 23, 2012 Rise Set
Actual Time 5:38 AM AKDT 8:27 PM AKDT
Civil Twilight 4:51 AM AKDT 9:13 PM AKDT
Nautical Twilight 3:48 AM AKDT 10:16 PM AKDT
Astronomical Twilight 2:11 AM AKDT 11:48 PM AKDT
Moon 2:37 PM AKDT 9:57 PM AKDT
Length of Visible Light 16h 22m
Length of Day
14h 49m
Waxing Crescent, 41% of the Moon is Illuminated
Aug 23
Waxing Crescent
Aug 24
First Quarter
Aug 31
Full
Sep 8
Last Quarter
Sep 15
New

Hourly Weather History & Observations

Time (AKDT) Temp. Dew Point Humidity Pressure Visibility Wind Dir Wind Speed Gust Speed Precip Events Conditions
12:53 AM 53.1 °F 51.1 °F 93% 29.92 in 10.0 mi Calm Calm - 0.00 in   Overcast
1:26 AM 53.6 °F 51.8 °F 94% 29.91 in 10.0 mi Variable 5.8 mph - N/A   Overcast
1:44 AM 55.4 °F 50.0 °F 82% 29.91 in 10.0 mi South 6.9 mph - N/A   Overcast
1:53 AM 54.0 °F 50.0 °F 86% 29.91 in 10.0 mi Variable 3.5 mph - N/A   Overcast
2:53 AM 54.0 °F 50.0 °F 86% 29.91 in 10.0 mi SSW 5.8 mph - N/A   Overcast
3:53 AM 54.0 °F 50.0 °F 86% 29.91 in 10.0 mi SSW 8.1 mph - N/A   Overcast
4:53 AM 54.0 °F 50.0 °F 86% 29.90 in 10.0 mi South 5.8 mph - 0.00 in   Overcast
5:53 AM 54.0 °F 50.0 °F 86% 29.91 in 10.0 mi SSW 8.1 mph - N/A   Overcast
6:43 AM 53.6 °F 50.0 °F 88% 29.91 in 10.0 mi SSW 11.5 mph - N/A   Overcast
6:53 AM 51.1 °F 48.9 °F 92% 29.91 in 10.0 mi SW 10.4 mph - N/A   Overcast
7:18 AM 53.6 °F 50.0 °F 88% 29.91 in 10.0 mi SSW 5.8 mph - N/A   Overcast
7:53 AM 54.0 °F 50.0 °F 86% 29.91 in 10.0 mi SSW 9.2 mph - 0.00 in Rain Light Rain
8:53 AM 53.1 °F 50.0 °F 89% 29.91 in 10.0 mi SSW 10.4 mph - 0.00 in   Overcast
9:53 AM 51.1 °F 48.9 °F 92% 29.91 in 10.0 mi SW 8.1 mph - N/A   Overcast
10:53 AM 53.1 °F 48.9 °F 86% 29.91 in 10.0 mi SSW 10.4 mph - N/A   Overcast
11:53 AM 53.1 °F 50.0 °F 89% 29.92 in 10.0 mi WSW 12.7 mph - N/A   Overcast
12:53 PM 57.0 °F 50.0 °F 77% 29.91 in 10.0 mi SSW 16.1 mph 23.0 mph N/A   Overcast
1:53 PM 57.9 °F 48.9 °F 72% 29.92 in 10.0 mi SSW 11.5 mph 21.9 mph N/A   Overcast
2:53 PM 57.9 °F 48.9 °F 72% 29.91 in 10.0 mi SSW 18.4 mph 26.5 mph N/A   Overcast
3:53 PM 59.0 °F 48.9 °F 69% 29.91 in 10.0 mi SSW 18.4 mph 28.8 mph N/A   Overcast
4:53 PM 57.9 °F 48.9 °F 72% 29.91 in 10.0 mi SSW 18.4 mph 25.3 mph N/A   Overcast
5:53 PM 57.0 °F 48.9 °F 74% 29.91 in 10.0 mi SSW 15.0 mph - N/A   Overcast
6:53 PM 55.9 °F 48.0 °F 75% 29.92 in 10.0 mi SSW 15.0 mph - N/A   Overcast
7:53 PM 57.0 °F 48.9 °F 74% 29.93 in 10.0 mi Calm Calm - N/A   Overcast
8:53 PM 55.9 °F 48.0 °F 75% 29.94 in 10.0 mi East 4.6 mph - N/A   Overcast
9:53 PM 55.9 °F 48.0 °F 75% 29.94 in 10.0 mi Variable 3.5 mph - N/A   Overcast
10:53 PM 55.0 °F 48.9 °F 80% 29.95 in 10.0 mi ESE 3.5 mph - N/A   Overcast
11:53 PM 55.0 °F 48.9 °F 80% 29.96 in 10.0 mi Calm Calm - N/A   Overcast